STARLINK-34903

Last updated on Tue Sep 16 2025 00:02:07 GMT+0000 (Coordinated Universal Time)

1 65372U 25190X 25258.48459854 -.00675333 00000+0 -81135-2 0 9997 2 65372 53.1589 265.3082 0000149 166.6566 193.4453 15.62414015 2888
UTC large
Height (km)
Speed (km/s)
/
Latitude / Longitude
Inclination (degrees)
Orbital Period (minutes)
Azimuth
Elevation
Range (km)
Doppler Factor

Next 0 passes for location: London (51.5072 / 0.1276)

Sorry there are no passes over London.